Regional Weather Roundup
Issued by NWS

Home | Current Version | Previous Version | Text Only | Print | Product List | Glossary Off
Versions: 1 2 3 4 5 6 7 8 9 10 11 12 13 14 15 16 17 18 19 20 21 22 23 24 25 26 27 28 29 30 31 32 33 34 35 36 37 38 39 40 41 42 43 44 45 46 47 48 49 50

929
ASUS43 KBIS 232110
RWRND

NORTH DAKOTA REGIONAL WEATHER ROUNDUP
NATIONAL WEATHER SERVICE BISMARCK ND
400 PM CDT SAT JUL 23 2016

NOTE: "FAIR" INDICATES FEW OR NO CLOUDS BELOW 12,000 FEET WITH NO
SIGNIFICANT WEATHER AND/OR OBSTRUCTIONS TO VISIBILITY.


NDZ001>003-009>011-017-232200-
NORTHWEST NORTH DAKOTA

CITY           SKY/WX    TMP DP  RH WIND       PRES   REMARKS
WILLISTON      SUNNY     82  49  31 W23G32    29.82S
MINOT          SUNNY     85  54  34 W17G24    29.76S
MINOT AFB      SUNNY     80  58  47 W17G24    29.75S
$$

NDZ018>021-031>035-040>046-232200-
SOUTHWEST NORTH DAKOTA

CITY           SKY/WX    TMP DP  RH WIND       PRES   REMARKS
BISMARCK       MOSUNNY   83  63  50 N18       29.81R
DICKINSON      SUNNY     81  46  29 W21G30    29.87S
GARRISON         N/A     79  58  48 W13G23    29.80S
HETTINGER ARPT SUNNY     87  43  21 NW23G30   29.91S
$$

NDZ004>008-012>016-024-026-027-054-232200-
NORTHEAST NORTH DAKOTA

CITY           SKY/WX    TMP DP  RH WIND       PRES   REMARKS
GRAND FORKS    HVY RAIN  70  67  90 NW6       29.74R FOG
GRND FRKS AFB  TSTM      69  67  93 E14       29.73F VSB 1/2
DEVILS LAKE    MOSUNNY   75  66  73 CALM      29.76F
$$

NDZ022-023-025-028>030-036>039-047>053-232200-
SOUTHEAST NORTH DAKOTA

CITY           SKY/WX    TMP DP  RH WIND       PRES   REMARKS
FARGO          PTSUNNY   80  69  69 SE12      29.72S
JAMESTOWN      LGT RAIN  75  69  81 S9        29.77R
$$





USA.gov is the U.S. government's official web portal to all federal, state and local government web resources and services.